DW6451 Weather Reports


Display with metric or nautical units.
time (UTC)temp
F
wind
direction
speed
MPH
gust
MPH
rain 1hr
in
rain 24hr
in
rain mn
in
humidity
%
barometer
mb
20260504081549 61 202 5.0 12.0 0.00 0.00 0.00 39 992.6
20260504050010 58 220 3.0 8.0 0.00 0.00 0.00 39 997.3
20260504044506 58 214 3.0 9.0 0.00 0.00 0.00 39 997.5
20260504043004 56 225 2.0 7.0 0.00 0.00 0.00 41 997.9
20260504041501 55 243 2.0 5.0 0.00 0.00 0.00 44 998.3
20260504040104 55 274 1.0 4.0 0.00 0.00 0.00 45 998.5
20260504034555 54 287 0.0 3.0 0.00 0.00 0.00 46 998.9
20260504033057 54 316 0.0 3.0 0.00 0.00 0.00 46 999.2
20260504031614 54 316 0.0 1.0 0.00 0.00 0.00 47 999.5
20260504030049 55 316 0.0 1.0 0.00 0.00 0.00 46 999.9
20260504024547 56 316 0.0 0.0 0.00 0.00 0.00 46 1000.1
20260504023045 58 316 0.0 0.0 0.00 0.00 0.00 44 1000.4
20260504021542 58 316 0.0 0.0 0.00 0.00 0.00 41 1000.5
20260504020042 60 316 0.0 0.0 0.00 0.00 0.00 40 1000.7
20260504014541 61 316 0.0 0.0 0.00 0.00 0.00 38 1000.7
20260504013040 62 316 0.0 0.0 0.00 0.00 0.00 36 1000.8
20260504011539 62 316 0.0 1.0 0.00 0.00 0.00 35 1001.0
20260504010043 63 316 0.0 2.0 0.00 0.00 0.00 34 1001.2
20260504004537 63 317 0.0 2.0 0.00 0.00 0.00 35 1001.2
20260504003042 64 315 0.0 5.0 0.00 0.00 0.00 34 1001.3
20260504001542 65 269 0.0 5.0 0.00 0.00 0.00 33 1001.2
20260504000034 65 298 2.0 5.0 0.00 0.00 0.00 32 1001.4
20260503234534 66 267 1.0 8.0 0.00 0.00 0.00 32 1001.6
20260503233029 66 327 0.0 8.0 0.00 0.00 0.00 32 1001.8
20260503231542 66 325 2.0 5.0 0.00 0.00 0.00 33 1001.9
20260503230027 66 341 2.0 9.0 0.00 0.00 0.00 32 1002.1
20260503224526 66 275 3.0 8.0 0.00 0.00 0.00 30 1002.0
20260503223027 66 332 2.0 9.0 0.00 0.00 0.00 30 1002.1
20260503221525 67 317 1.0 10.0 0.00 0.00 0.00 29 1002.0
20260503220033 67 252 2.0 12.0 0.00 0.00 0.00 27 1002.0
20260503214522 66 233 3.0 8.0 0.00 0.00 0.00 26 1002.1
20260503213024 66 302 2.0 8.0 0.00 0.00 0.00 29 1002.2
20260503211522 66 326 2.0 9.0 0.00 0.00 0.00 28 1002.4
20260503210019 66 22 4.0 8.0 0.00 0.00 0.00 28 1002.5
20260503204518 66 350 2.0 10.0 0.00 0.00 0.00 27 1002.5
20260503203022 67 302 3.0 10.0 0.00 0.00 0.00 28 1002.5
20260503201515 67 300 4.0 8.0 0.00 0.00 0.00 26 1002.7
20260503200013 67 317 4.0 9.0 0.00 0.00 0.00 23 1002.8
20260503194520 67 316 4.0 8.0 0.00 0.00 0.00 27 1002.8
20260503193012 67 346 3.0 11.0 0.00 0.00 0.00 26 1002.8
20260503191510 67 315 3.0 8.0 0.00 0.00 0.00 31 1002.8
20260503190008 67 279 4.0 10.0 0.00 0.00 0.00 32 1002.9
20260503184508 67 329 4.0 9.0 0.00 0.00 0.00 35 1003.0
20260503183006 66 317 5.0 9.0 0.00 0.00 0.00 35 1003.1
20260503181506 66 320 3.0 10.0 0.00 0.00 0.00 39 1003.2
20260503180014 66 69 4.0 11.0 0.00 0.00 0.00 41 1003.4
20260503174510 66 342 3.0 11.0 0.00 0.00 0.00 43 1003.3
20260503173002 66 355 3.0 11.0 0.00 0.00 0.00 44 1003.5
20260503171500 66 327 4.0 11.0 0.00 0.00 0.00 43 1003.5